Погода Приморско-Ахтарск

Погода Приморско-Ахтарск : погода сейчас, прогноз погоды и архив. Всё, что Вы хотите узнать о погоде Приморско-Ахтарск!

Хотите узнать прогноз погоды Приморско-Ахтарск? Тогда Вам сюда: Погода Приморско-Ахтарск

Поиск расширенной информации на нашем сайте:

Другие новости

Новости СМИ2

Главная страница сайта

Новости сайта

03.07.2017

Напоминаем, что на нашем специализированном сайте Метеоцентр.Азия вы можете получить высокодетализированные автоматические прогнозы погоды по пунктам России, СНГ и мира в авиационном формате (включающие направление и скорость ветра, видимость, явления погоды, количество и форму облачности, нижнюю и верхнюю границу облачности).

Рекомендуем: Увеличение продаж цена: как правильно применять вилку цен для увеличения продаж.

Погода Приморско-Ахтарск - сегодня

Время (UTC), дата Ветер
(°,м/с) 
Видим.   Явления Облачность Т
(°С)
Тd
(°С)
f(%) Тe
(°С)
Pmin
(гПа)
dP
(гПа)
Po
(мм)
O2
(г/м3)
Тmin Tmax R s Состояние
почвы
21 14.02.18 070 (В) 10 км    ясно 
+1.4 -0.7 86 -1  1022.6  0.1  767  307           
00 15.02.18 090 (В) 4000 м  дымка  10/10 600 м 
[Sc]
+1.8 +0.6 92 -1  1021.7  -0.8  766  307           
03 15.02.18 100 (В) 4000 м  дымка  10/10 600 м 
[Sc]
+1.3 -0.1 90 -1  1022.1  -0.8  766  307  +1.3         
06 15.02.18 100 (В) 5{11}  4000 м  дымка  10/10 600 м 
[Sc]
+1 -0.4 90 -2  1023.4  1.3  767  308  +0.6         
09 15.02.18 100 (В) 5{10}  10 км    10/10 600 м 
[Sc]
+3.3 +0.1 80 +1  1023.6  0.2  767  305           
12 15.02.18 100 (В) 4{11}  10 км    10/10 600 м 
[Sc]
+5.4 +1.7 77 +4  1023.6  767  303           
15 15.02.18 080 (В) 10 км  {ливн. осадки}  10/10 600 м кучево-дожд. 
[Cb calv]
+4 +1.6 84 +3  1024  0.4  768  305    +5.5     
18 15.02.18 090 (В) 10 км  {ливн. осадки}  10/10 600 м 
[Sc diur, vesp]
+4.4 +2 84 +3  1024.6  0.7  768  304           
21 15.02.18 090 (В) 10 км    8/8 600 м 
[Sc]
+3.5 +1.1 84 +2  1025.3  0.6  769  306           
00 16.02.18 090 (В) 4000 м  дымка  ясно 
+1.2 -0.6 88 1026  0.8  769  309           
03 16.02.18 080 (В) 4000 м  дымка  ясно 
+0.8 -0.7 90 -1  1026.4  0.4  769  309  +0.8         
06 16.02.18 080 (В) 4000 м    ясно 
+1.7 -0.3 87 1026.6  0.2  770  308  +0.5         
09 16.02.18 060 (СВ) 10 км    ясно 
+5.4 +1.3 75 +4  1026.8  0.2  770  304           
12 16.02.18 070 (В) 10 км    3/0 верхняя 
[Ci fib]
+7 +2.4 72 +6  1025.5  -1.3  769  302           
15 16.02.18 050 (СВ) 10 км    10/0 средняя, верхняя 
[Ac trans|Ci fib]
+4.6 +1.7 81 +3  1025.4  0.1  769  304    +7.3       
18 16.02.18 050 (СВ) 10 км    10/0 средняя, верхняя 
[Ac trans|Ci fib]
+3.4 +1.2 85 +2  1025.7  0.3  769  306           
21 16.02.18 060 (СВ) 4000 м  дымка  10/5 600 м средняя 
[Sc|Ac und]
+2.5 +0.9 89 1024.4  -1.3  768  307           
00 17.02.18 050 (СВ) 4000 м  дымка  10/0 верхняя 
[Ci fib]
+2.4 +0.7 89 +2  1023.8  -0.6  767  306           
03 17.02.18 040 (СВ) 4000 м  в посл. час ливневой дождь  6/6 600 м 
[Sc diur, vesp]
+1.9 +0.6 91 +1  1023  -0.8  767  307  +1.9    0.3     
06 17.02.18 060 (СВ) 4000 м  дымка{ливн. осадки}  10/10 600 м 
[Sc]
+2.7 +1.4 91 +1  1023  0.1  767  306  +1.4         
09 17.02.18 040 (СВ) 10 км    10/10 600 м 
[Sc]
+3.9 +1.6 85 +3  1022.2  -0.8  766  304           
12 17.02.18 080 (В) 10 км    10/10 600 м 
[Sc]
+4.2 +1.6 83 +3  1020.3  -2  765  303           
15 17.02.18 010 (С) 10 км    10/10 600 м 
[Sc]
+3.9 +1.5 84 +3  1020.5  0.2  765  304    +4.7       
18 17.02.18 010 (С) 4000 м    10/10 600 м 
[Sc]
+3.2 +1.5 89 +3  1020.7  0.2  765  305           
21 17.02.18 320 (СЗ) 4000 м  дымка  10/10 600 м 
[St]
+2.4 +1.1 91 +3  1020.2  -0.5  765  305           
Время (UTC), дата Ветер
(°,м/с) 
Видим.   Явления Облачность Т
(°С)
Тd
(°С)
f(%) Тe
(°С)
Pmin
(гПа)
dP
(гПа)
Po
(мм)
O2
(г/м3)
Тmin Tmax R s Состояние
почвы

Для получения пояснительной информации подведите курсор к названию столбца.

ПОГОДА Приморско-Ахтарск - архив

Всё, что Вы хотите узнать о погоде Приморско-Ахтарск - удобно и подробно!

Выберите нужную дату (начиная с 1 января 2015* года) и нажмите кнопку "Найти".
Будут отображены архивные сводки погоды по пункту Приморско-Ахтарск, начиная с указанной даты.


Отображать данные в формате CSV (для использования в таблицах Excel)


Внимание! Наш архив погоды предназначен исключительно для личного некоммерческого использования в познавательных целях. Если Вам необходимы официальные справки о состоянии погоды (для производственных, юридических, коммерческих и т.п. целей), обращайтесь в органы Росгидромета.

*Примечание: данная дата относится к архиву по метеостанциям СССР (Россия, СНГ, Балтия).
Архив по метеостанциям Зарубежной Европы и Азии (кроме Китая) хранится 10 дней, по другим регионам земного шара (Китай, Африка, Америка, Австралия, Океания) - 1 день.

Приморско-Ахтарск - район местоположения метеостанции


Название, широта, долгота, высота метеостанции:
Приморско-Ахтарск 46°ш. 38.2°д. 5 м над ур. моря [Российская Федерация]

Дополнительная информация

В oтличие oт бoльшинства пoгoдных сайтoв мы публикуем пoдрoбную метеoинфoрмацию в детальнoм прoфессиoнальнoм фoрмате.

Характеристики температуры и влажнoсти вoздуха измеряются на высoте 2 м в тени вдали oт зданий и деревьев.
Скoрoсть ветра измеряется на высoте 10 м (на урoвне рoста челoвека скoрoсть ветра ниже в 1.5-2 раза). Если метеoстанция нахoдится в гoрoде или в лесу, тo скoрoсть ветра занижена на 2-4 м/с пo сравнению с oткрытым местoм. Скoрoсть ветра над акватoриями крупных рек и oзёр, а также на вершинах хoлмoв на 2-5 м/с выше, чем в oбычных услoвиях.
Атмoсфернoе давление в разных тoчках местнoсти мoжет значительнo oтличаться oт давления на метеoстанции, в зависимoсти oт услoвий рельефа (при пoдъёме на 10 м давление пoнижается примернo на 1 мм рт.ст.).